Location: Kunchanapalle
(16.4623°N, 80.6176°E)
Time: 14:09:08
(UTC+00:00)

ADEOS - Pass Details

Date: 13 August 2020
Orbit: 792 x 795 km, 98.9° (Epoch: 24 September)

Event Time Altitude Azimuth Distance (km) Brightness Sun altitude
Rises 22:57:39 0° 6° (N) 3,285 7.2 -19.9°
Reaches altitude 10° 23:00:00 10° 3° (N) 2,354 6.3 -19.3°
Maximum altitude 23:05:06 61° 284° (WNW) 895 3.6 -18.2°
Enters shadow 23:08:31 21° 210° (SSW) 1,707 4.9 -17.4°
